Погода в Бомнаке

Погода в Бомнаке : погода сейчас, прогноз погоды и архив. Всё, что Вы хотите узнать о погоде в Бомнаке!

Поиск расширенной информации на нашем сайте:

Другие новости

Новости СМИ2

Главная страница сайта

Новости сайта

02.10.2013

Напоминаем, что на нашем новом сайте вы можете получить высокодетализированные прогнозы погоды по пунктам России, СНГ и мира (включающие важные для авиации метеовеличины, такие как направление и скорость ветра, видимость, явления погоды, количество и форма облачности, нижняя и верхняя граница облачности), а также ознакомиться с разнообразными материалами по авиационной метеорологии и подборкой полезных ссылок на эту тему.

Сайт Метеоцентр.Азия посвящён разработке технологий оптимизации авиаметеорологического обслуживания, включая проектирование и перспективное создание нескольких автоматизированных авиаметеорологических систем:
- система выпуска высокодетальных прогностических карт явлений погоды для нижнего воздушного пространства по России и ближнему зарубежью;
- система верификации прогнозов TAF (выпускаемых синоптиками официальных АМСГ РФ и ближнего зарубежья) и AUTOTAF (выпускаемых сайтом Метеоцентр.Азия) - выявление ошибок, онлайн-сопоставление с фактической погодой METAR, автоматическое внесение коррективов в прогнозы при резком отклонении фактической погоды от прогноза, подсчёт оправдываемости прогнозов по элементам и в целом;
- система обработки, анализа и отображения авиаметеорологической информации для применения провайдерами метеорологической информации.

Рекомендуем: Компьютерная помощь в Москве chibal.ru.

Погода в Бомнаке - сегодня

Время (UTC), дата Ветер
(°,м/с) 
Видим.   Явления Облачность Т
(°С)
Тd
(°С)
f(%) Тe
(°С)
Pmin
(гПа)
dP
(гПа)
Po
(мм)
O2
(г/м3)
Тmin Tmax R s Состояние
почвы
09 26.04.17 340 (С) 4{10}  20000 м    10/4 600 м средняя, верхняя 
[Cu Sc|Ac trans|Ci fib]
+10.8 -10.4 21 +10  1006.6  -1.2  723  281           
12 26.04.17 350 (С) 20000 м    10/8 600 м кучево-дожд., верхняя 
[Cb cap|Ci fib]
+7.4 -11.2 25 +7  1007.1  723  284    +12.2       
15 26.04.17 360 (С) 20000 м    10/10 600 м кучево-дожд. 
[Cb cap]
+5.5 -9.7 32 +4  1006.6  -0.8  722  286           
18 26.04.17 340 (С) 20000 м    10/8 600 м кучево-дожд., верхняя 
[Cb cap|Ci fib]
+3.4 -6.6 48 +1  1005.7  -1.1  721  288           
21 26.04.17 320 (СЗ) 20000 м    8/3 600 м средняя, верхняя 
[Sc diur, vesp|Ac trans|Ci fib]
+1.5 -4.3 65 1004.4  -1.5  720  289           
00 27.04.17 340 (С) 20000 м    8/3 600 м средняя, верхняя 
[Cu hum|Ac trans|Ci fib]
+6.6 -2.5 52 +4  1002.4  -1.1  719  283  +1.2        влажная 
03 27.04.17 280 (З) 20000 м    10/8 600 м кучево-дожд., верхняя 
[Cb cap|Ci fib]
+8.9 -7.3 31 +8  1000.6  -1.4  718  281           
06 27.04.17 310 (СЗ) 6-12{12}  20000 м    10/8 600 м кучево-дожд., верхняя 
[Cb cap|Cs]
+8.9 -7.5 31 +7  999.6  -0.9  717  281           
09 27.04.17 320 (СЗ) 5{12}  20000 м    10/6 600 м верхняя 
[Sc diur, vesp|Cs]
+8.6 -9.4 27 +7  999  -0.6  717  281           
12 27.04.17 330 (СЗ) 20000 м    3/3 600 м средняя, верхняя 
[Ac trans|Ci fib]
+4.8 -8.7 37 +4  999.7  0.1  717  285    +9.9       
15 27.04.17 340 (С) 20000 м    ясно 
+1.4 -6.7 55 999.3  -1  716  288           
18 27.04.17 350 (С) 20000 м    4/0 верхняя 
[Ci fib]
-0.3 -6.5 63 -3  998.8  -0.7  716  289           
21 27.04.17 350 (С) 20000 м    3/0 средняя 
[Ac trans]
-0.7 -6.7 64 -3  998.3  -0.6  715  290           
00 28.04.17 350 (С) 20000 м    3/1 600 м верхняя 
[Cu hum|Ci fib]
+6 -7.1 38 +4  996.9  -0.3  715  283  -2.3        влажная 
03 28.04.17 360 (С) 20000 м    6/6 600 м кучево-дожд. 
[Cb cap]
+8.4 -7.8 31 +8  996.2  -0.3  715  280           
06 28.04.17 090 (В) 10 км  слаб. крупа{ливн. осадки}  9/9 600 м кучево-дожд. 
[Cb cap]
+7.1 -1.3 55 +5  996.4  -0.1  715  281           
09 28.04.17 140 (ЮВ) 20000 м  {ливн. осадки}  4/4 600 м кучево-дожд. 
[Cb cap]
+7.8 -3.9 43 +8  995.6  -0.7  714  280           
12 28.04.17 080 (В) 20000 м  {ливн. осадки}  4/3 600 м верхняя 
[Sc diur, vesp|Ci fib]
+4.6 -3.2 57 +3  995.9  -0.1  714  283    +9.4  0.3     
15 28.04.17 090 (В) 20000 м    ясно 
+1.6 -2.2 76 -1  994.2  -2.1  713  286           
18 28.04.17 080 (В) 20000 м    10/0 средняя, верхняя 
[Ac trans|Ci fib]
+0.3 -2.7 80 -2  994.2  -0.2  713  287           
21 28.04.17 070 (В) 6{11}  20000 м    10/5 600 м средняя, верхняя 
[Sc|Ac trans|Cs]
+0.1 -3.2 78 -3  993.5  -0.7  712  287           
00 29.04.17 090 (В) 7-11{12}  20000 м    10/3 600 м средняя, верхняя 
[Sc|Ac trans|Ci fib]
+3.1 -3 64 994  713  284  +0        влажная 
03 29.04.17 120 (ЮВ) 5{11}  20000 м    10/3 600 м верхняя 
[Cu hum|Ci fib]
+8.3 -4.3 41 +7  994  0.8  713  279           
06 29.04.17 130 (ЮВ) 20000 м    10/6 600 м верхняя 
[Cu med, cong|Ci fib]
+10.5 -8 26 +10  994.9  1.1  714  278           
09 29.04.17 100 (В) 2{10}  20000 м  в посл. час ливневой дождь  9/8 600 м кучево-дожд., верхняя 
[Cb cap|Ci fib]
+9.3 -6 33 +9  997.6  2.4  716  280           
Время (UTC), дата Ветер
(°,м/с) 
Видим.   Явления Облачность Т
(°С)
Тd
(°С)
f(%) Тe
(°С)
Pmin
(гПа)
dP
(гПа)
Po
(мм)
O2
(г/м3)
Тmin Tmax R s Состояние
почвы

Для получения пояснительной информации подведите курсор к названию столбца.

ПОГОДА в Бомнаке - архив

Всё, что Вы хотите узнать о погоде в Бомнаке - удобно и подробно!

Выберите нужную дату (начиная с 1 января 2015* года) и нажмите кнопку "Найти".
Будут отображены архивные сводки погоды по пункту Бомнак, начиная с указанной даты.


Отображать данные в формате CSV (для использования в таблицах Excel)


Внимание! Наш архив погоды предназначен исключительно для личного некоммерческого использования в познавательных целях. Если Вам необходимы официальные справки о состоянии погоды (для производственных, юридических, коммерческих и т.п. целей), обращайтесь в органы Росгидромета.

*Примечание: данная дата относится к архиву по метеостанциям СССР (Россия, СНГ, Балтия).
Архив по метеостанциям Зарубежной Европы и Азии (кроме Китая) хранится 10 дней, по другим регионам земного шара (Китай, Африка, Америка, Австралия, Океания) - 1 день.

Бомнак - район местоположения метеостанции


Название, широта, долгота, высота метеостанции:
Бомнак 54.7°ш. 128.9°д. 357 м над ур. моря [Российская Федерация]

Дополнительная информация

В oтличие oт бoльшинства пoгoдных сайтoв мы публикуем пoдрoбную метеoинфoрмацию в детальнoм прoфессиoнальнoм фoрмате.

Характеристики температуры и влажнoсти вoздуха измеряются на высoте 2 м в тени вдали oт зданий и деревьев.
Скoрoсть ветра измеряется на высoте 10 м (на урoвне рoста челoвека скoрoсть ветра ниже в 1.5-2 раза). Если метеoстанция нахoдится в гoрoде или в лесу, тo скoрoсть ветра занижена на 2-4 м/с пo сравнению с oткрытым местoм. Скoрoсть ветра над акватoриями крупных рек и oзёр, а также на вершинах хoлмoв на 2-5 м/с выше, чем в oбычных услoвиях.
Атмoсфернoе давление в разных тoчках местнoсти мoжет значительнo oтличаться oт давления на метеoстанции, в зависимoсти oт услoвий рельефа (при пoдъёме на 10 м давление пoнижается примернo на 1 мм рт.ст.).